This demonstration page uses our WeatherBlox Daily Observations layout. Learn more.

Left ArrowRight Arrow

41.55636, -103.73856

Hourly Observations for January 20, 2022

Temp ( °F °C ) Dew Point ( °F °C ) Humidity (%) Winds ( mph kmh ) Pressure ( in mb ) Visibility ( mi km ) Precip ( " mm )
12:58 am 00:58 Clear 7 -13.9 3 -15.9 85 85 WSW 5 7 30.58 1036 10 16 0.00 0.00
1:58 am 01:58 Clear 11 -11.8 7 -13.9 85 85 WSW 9 15 30.57 1035 10 16 0.00 0.00
2:58 am 02:58 Mostly Clear 13 -10.7 9 -13 83 83 WSW 8 13 30.55 1035 10 16 0.00 0.00
3:58 am 03:58 Clear 11 -11.7 8 -13.2 89 89 W 7 11 30.54 1034 10 16 0.00 0.00
4:58 am 04:58 Mostly Cloudy 9 -12.7 6 -14.4 87 87 W 6 9 30.55 1035 10 16 0.00 0.00
5:58 am 05:58 Mostly Cloudy 11 -11.8 7 -13.9 85 85 W 6 9 30.54 1034 10 16 0.00 0.00
6:58 am 06:58 Mostly Clear 9 -12.8 5 -14.9 84 84 SW 9 15 30.54 1034 10 16 0.00 0.00
7:58 am 07:58 Sunny 9 -12.7 5 -14.8 84 84 WNW 3 6 30.52 1034 10 16 0.00 0.00
8:58 am 08:58 Sunny 12 -10.9 8 -13.3 83 83 W 3 6 30.51 1033 10 16 0.00 0.00
9:58 am 09:58 Sunny 19 -7.4 14 -10.1 81 81 Calm 30.47 1032 10 16 0.01 0.25
10:58 am 10:58 Sunny 26 -3.6 19 -7.2 76 76 SW 5 7 30.43 1030 10 16 0.00 0.00
11:58 am 11:58 Sunny 28 -2 21 -6.3 73 73 W 3 6 30.40 1029 10 16 0.00 0.00
12:58 pm 12:58 Sunny 32 0 22 -5.4 67 67 W 8 13 30.35 1028 10 16 0.00 0.00
1:58 pm 13:58 Sunny 35 1.5 22 -5.6 60 60 WSW 14 22 30.29 1026 10 16 0.00 0.00
2:58 pm 14:58 Sunny 33 0.4 23 -5.2 66 66 SW 17 28 30.27 1025 10 16 0.00 0.00
3:58 pm 15:58 Sunny 32 0.1 22 -5.7 65 65 SSW 14 22 30.26 1025 10 16 0.00 0.00
4:58 pm 16:58 Clear 29 -1.9 21 -5.9 74 74 SSW 16 26 30.25 1024 10 16 0.00 0.00
5:58 pm 17:58 Clear 26 -3.1 21 -6.1 80 80 SSW 18 30 30.25 1024 10 16 0.00 0.00
6:58 pm 18:58 Clear 25 -4 19 -7.3 78 78 SSW 17 28 30.24 1024 10 16 0.00 0.00
7:58 pm 19:58 Clear 24 -4.4 18 -7.8 77 77 SSW 21 33 30.22 1023 10 16 0.00 0.00
8:58 pm 20:58 Clear 24 -4.3 18 -8 76 76 SSW 23 37 30.18 1022 10 16 0.00 0.00
9:58 pm 21:58 Clear 24 -4.4 18 -7.9 77 77 SSW 22 35 30.14 1021 10 16 0.00 0.00
10:58 pm 22:58 Mostly Cloudy 25 -4.1 18 -7.8 76 76 SSW 23 37 30.09 1019 10 16 0.00 0.00
11:58 pm 23:58 Cloudy 26 -3.4 19 -7.5 74 74 SSW 25 41 30.04 1017 10 16 0.00 0.00

Powered by AerisWeather